Time,TemperatureF,DewpointF,PressureIn,WindDirection,WindDirectionDegrees,WindSpeedMPH,WindSpeedGustMPH,Humidity,HourlyPrecipIn,Conditions,Clouds,dailyrainin,SolarRadiationWatts/m^2,SoftwareType,DateUTC
2015-08-31 00:12:00,67.9,67.0,29.93,North,359,0.0,0.0,95,0.00,,,0.00,0,weatherlink.com 1.10,2015-08-31 04:12:00,
2015-08-31 00:27:00,67.6,66.0,29.93,North,359,0.0,0.0,95,0.00,,,0.00,0,weatherlink.com 1.10,2015-08-31 04:27:00,
2015-08-31 00:42:00,67.5,66.0,29.93,North,359,0.0,0.0,95,0.00,,,0.00,0,weatherlink.com 1.10,2015-08-31 04:42:00,
2015-08-31 00:57:00,67.2,66.0,29.93,North,359,0.0,0.0,95,0.00,,,0.00,0,weatherlink.com 1.10,2015-08-31 04:57:00,
2015-08-31 01:12:00,67.1,66.0,29.93,North,359,0.0,0.0,96,0.00,,,0.00,0,weatherlink.com 1.10,2015-08-31 05:12:00,
2015-08-31 01:27:00,66.7,66.0,29.93,North,359,0.0,0.0,96,0.00,,,0.00,0,weatherlink.com 1.10,2015-08-31 05:27:00,
2015-08-31 01:42:00,66.6,66.0,29.93,North,359,0.0,0.0,96,0.00,,,0.00,0,weatherlink.com 1.10,2015-08-31 05:42:00,
2015-08-31 01:57:00,66.5,65.0,29.93,North,359,0.0,0.0,96,0.00,,,0.00,0,weatherlink.com 1.10,2015-08-31 05:57:00,
2015-08-31 02:12:00,66.5,65.0,29.93,North,359,0.0,0.0,96,0.00,,,0.00,0,weatherlink.com 1.10,2015-08-31 06:12:00,
2015-08-31 02:27:00,66.1,65.0,29.93,North,359,0.0,0.0,96,0.00,,,0.00,0,weatherlink.com 1.10,2015-08-31 06:27:00,
2015-08-31 02:42:00,65.8,65.0,29.92,North,359,0.0,0.0,96,0.00,,,0.00,0,weatherlink.com 1.10,2015-08-31 06:42:00,
2015-08-31 02:57:00,65.5,64.0,29.93,North,359,0.0,0.0,96,0.00,,,0.00,0,weatherlink.com 1.10,2015-08-31 06:57:00,
2015-08-31 03:12:00,65.5,64.0,29.93,North,359,0.0,0.0,96,0.00,,,0.00,0,weatherlink.com 1.10,2015-08-31 07:12:00,
2015-08-31 03:27:00,65.2,64.0,29.93,North,359,0.0,0.0,96,0.00,,,0.00,0,weatherlink.com 1.10,2015-08-31 07:27:00,
2015-08-31 03:42:00,65.0,64.0,29.92,North,359,0.0,0.0,96,0.00,,,0.00,0,weatherlink.com 1.10,2015-08-31 07:42:00,
2015-08-31 03:57:00,64.7,64.0,29.92,North,359,0.0,0.0,97,0.00,,,0.00,0,weatherlink.com 1.10,2015-08-31 07:57:00,
2015-08-31 04:12:00,64.6,64.0,29.92,North,359,0.0,0.0,97,0.00,,,0.00,0,weatherlink.com 1.10,2015-08-31 08:12:00,
2015-08-31 04:27:00,64.3,64.0,29.92,North,359,0.0,0.0,97,0.00,,,0.00,0,weatherlink.com 1.10,2015-08-31 08:27:00,
2015-08-31 04:42:00,64.2,63.0,29.92,North,359,0.0,0.0,97,0.00,,,0.00,0,weatherlink.com 1.10,2015-08-31 08:42:00,
2015-08-31 04:57:00,64.0,63.0,29.93,North,359,0.0,0.0,97,0.00,,,0.00,0,weatherlink.com 1.10,2015-08-31 08:57:00,
2015-08-31 05:12:00,63.8,63.0,29.93,North,359,0.0,0.0,97,0.00,,,0.00,0,weatherlink.com 1.10,2015-08-31 09:12:00,
2015-08-31 05:27:00,63.6,63.0,29.92,North,359,0.0,0.0,97,0.00,,,0.00,0,weatherlink.com 1.10,2015-08-31 09:27:00,
2015-08-31 05:42:00,63.6,63.0,29.92,North,359,0.0,0.0,97,0.00,,,0.00,0,weatherlink.com 1.10,2015-08-31 09:42:00,
2015-08-31 05:57:00,63.6,63.0,29.93,North,359,0.0,0.0,98,0.00,,,0.00,0,weatherlink.com 1.10,2015-08-31 09:57:00,
2015-08-31 06:12:00,63.5,63.0,29.93,North,359,0.0,0.0,97,0.00,,,0.00,0,weatherlink.com 1.10,2015-08-31 10:12:00,
2015-08-31 06:27:00,63.3,63.0,29.94,North,359,0.0,0.0,98,0.00,,,0.00,0,weatherlink.com 1.10,2015-08-31 10:27:00,
2015-08-31 06:42:00,63.3,63.0,29.94,North,359,0.0,0.0,98,0.00,,,0.00,0,weatherlink.com 1.10,2015-08-31 10:42:00,
2015-08-31 06:57:00,63.5,63.0,29.94,North,359,0.0,0.0,98,0.00,,,0.00,0,weatherlink.com 1.10,2015-08-31 10:57:00,
2015-08-31 07:12:00,63.5,63.0,29.95,North,359,0.0,0.0,98,0.00,,,0.00,0,weatherlink.com 1.10,2015-08-31 11:12:00,
2015-08-31 07:27:00,63.7,63.0,29.95,North,359,0.0,0.0,98,0.00,,,0.00,12,weatherlink.com 1.10,2015-08-31 11:27:00,
2015-08-31 07:42:00,63.8,63.0,29.95,North,359,0.0,0.0,98,0.00,,,0.00,25,weatherlink.com 1.10,2015-08-31 11:42:00,
2015-08-31 07:57:00,64.1,64.0,29.96,North,359,0.0,0.0,98,0.00,,,0.00,44,weatherlink.com 1.10,2015-08-31 11:57:00,
2015-08-31 08:12:00,64.4,64.0,29.96,North,359,0.0,0.0,98,0.00,,,0.00,62,weatherlink.com 1.10,2015-08-31 12:12:00,
2015-08-31 08:27:00,64.9,64.0,29.97,North,359,0.0,0.0,98,0.00,,,0.00,88,weatherlink.com 1.10,2015-08-31 12:27:00,
2015-08-31 08:42:00,65.3,65.0,29.97,North,359,0.0,1.0,98,0.00,,,0.00,120,weatherlink.com 1.10,2015-08-31 12:42:00,
2015-08-31 08:57:00,65.8,65.0,29.98,North,359,0.0,0.0,98,0.00,,,0.00,125,weatherlink.com 1.10,2015-08-31 12:57:00,
2015-08-31 09:13:00,66.4,66.0,29.98,North,359,1.0,2.0,98,0.00,,,0.00,167,weatherlink.com 1.10,2015-08-31 13:13:00,
2015-08-31 09:28:00,67.0,67.0,29.98,North,359,2.0,4.0,98,0.00,,,0.00,209,weatherlink.com 1.10,2015-08-31 13:28:00,
2015-08-31 09:43:00,68.0,68.0,29.98,North,359,2.0,4.0,99,0.00,,,0.00,339,weatherlink.com 1.10,2015-08-31 13:43:00,
2015-08-31 09:58:00,69.0,69.0,29.98,North,359,4.0,4.0,99,0.00,,,0.00,383,weatherlink.com 1.10,2015-08-31 13:58:00,
2015-08-31 10:13:00,70.0,70.0,29.98,West,277,0.0,4.0,99,0.00,,,0.00,432,weatherlink.com 1.10,2015-08-31 14:13:00,
2015-08-31 10:28:00,71.0,70.0,29.98,West,275,3.0,5.0,98,0.00,,,0.00,473,weatherlink.com 1.10,2015-08-31 14:28:00,
2015-08-31 10:43:00,72.4,72.0,29.98,West,274,0.0,5.0,97,0.00,,,0.00,508,weatherlink.com 1.10,2015-08-31 14:43:00,
2015-08-31 10:58:00,74.0,72.0,29.99,West,263,0.0,5.0,94,0.00,,,0.00,552,weatherlink.com 1.10,2015-08-31 14:58:00,
2015-08-31 11:13:00,75.7,72.0,29.99,West,261,0.0,6.0,88,0.00,,,0.00,591,weatherlink.com 1.10,2015-08-31 15:13:00,
2015-08-31 11:28:00,77.3,72.0,29.99,West,275,0.0,5.0,83,0.00,,,0.00,619,weatherlink.com 1.10,2015-08-31 15:28:00,
2015-08-31 11:43:00,78.4,72.0,29.98,West,270,0.0,4.0,81,0.00,,,0.00,656,weatherlink.com 1.10,2015-08-31 15:43:00,
2015-08-31 11:58:00,80.4,73.0,29.98,SW,235,1.0,4.0,78,0.00,,,0.00,691,weatherlink.com 1.10,2015-08-31 15:58:00,
2015-08-31 12:13:00,80.8,72.0,29.98,NW,310,0.0,6.0,75,0.00,,,0.00,657,weatherlink.com 1.10,2015-08-31 16:13:00,
2015-08-31 12:28:00,80.5,72.0,29.98,WNW,298,0.0,5.0,75,0.00,,,0.00,842,weatherlink.com 1.10,2015-08-31 16:28:00,
2015-08-31 12:43:00,80.4,72.0,29.98,WSW,257,3.0,6.0,75,0.00,,,0.00,341,weatherlink.com 1.10,2015-08-31 16:43:00,
2015-08-31 12:58:00,80.7,72.0,29.98,NW,320,0.0,5.0,75,0.00,,,0.00,891,weatherlink.com 1.10,2015-08-31 16:58:00,
2015-08-31 13:13:00,80.6,72.0,29.97,West,273,0.0,5.0,76,0.00,,,0.00,302,weatherlink.com 1.10,2015-08-31 17:13:00,
2015-08-31 13:28:00,81.5,72.0,29.97,SSW,194,0.0,6.0,73,0.00,,,0.00,171,weatherlink.com 1.10,2015-08-31 17:28:00,
2015-08-31 13:43:00,82.6,72.0,29.96,SW,228,0.0,5.0,70,0.00,,,0.00,870,weatherlink.com 1.10,2015-08-31 17:43:00,
2015-08-31 13:58:00,83.0,72.0,29.96,SW,231,1.0,7.0,69,0.00,,,0.00,900,weatherlink.com 1.10,2015-08-31 17:58:00,
2015-08-31 14:13:00,82.1,71.0,29.96,WSW,241,4.0,7.0,70,0.00,,,0.00,371,weatherlink.com 1.10,2015-08-31 18:13:00,
2015-08-31 14:29:00,83.2,72.0,29.95,WSW,256,1.0,6.0,69,0.00,,,0.00,874,weatherlink.com 1.10,2015-08-31 18:29:00,
2015-08-31 14:44:00,84.0,72.0,29.95,West,265,0.0,7.0,67,0.00,,,0.00,867,weatherlink.com 1.10,2015-08-31 18:44:00,
2015-08-31 14:59:00,84.7,72.0,29.94,WNW,296,0.0,6.0,65,0.00,,,0.00,814,weatherlink.com 1.10,2015-08-31 18:59:00,
2015-08-31 15:14:00,85.0,72.0,29.94,NW,313,2.0,7.0,65,0.00,,,0.00,246,weatherlink.com 1.10,2015-08-31 19:14:00,
2015-08-31 15:29:00,85.2,71.0,29.93,SW,235,5.0,8.0,62,0.00,,,0.00,775,weatherlink.com 1.10,2015-08-31 19:29:00,
2015-08-31 15:44:00,84.9,71.0,29.93,SW,214,0.0,8.0,63,0.00,,,0.00,719,weatherlink.com 1.10,2015-08-31 19:44:00,
2015-08-31 15:59:00,86.0,70.0,29.93,West,278,0.0,8.0,60,0.00,,,0.00,687,weatherlink.com 1.10,2015-08-31 19:59:00,
2015-08-31 16:14:00,86.0,70.0,29.93,West,262,1.0,8.0,60,0.00,,,0.00,666,weatherlink.com 1.10,2015-08-31 20:14:00,
2015-08-31 16:29:00,86.6,71.0,29.92,WSW,250,1.0,7.0,60,0.00,,,0.00,631,weatherlink.com 1.10,2015-08-31 20:29:00,
2015-08-31 16:44:00,87.0,70.0,29.90,West,260,1.0,6.0,58,0.00,,,0.00,578,weatherlink.com 1.10,2015-08-31 20:44:00,
2015-08-31 16:59:00,86.4,70.0,29.89,SW,234,5.0,8.0,59,0.00,,,0.00,557,weatherlink.com 1.10,2015-08-31 20:59:00,
2015-08-31 17:14:00,86.3,70.0,29.90,SW,234,5.0,8.0,59,0.00,,,0.00,504,weatherlink.com 1.10,2015-08-31 21:14:00,
2015-08-31 17:29:00,87.0,71.0,29.90,SW,223,3.0,6.0,59,0.00,,,0.00,480,weatherlink.com 1.10,2015-08-31 21:29:00,
2015-08-31 17:44:00,86.5,70.0,29.90,SSW,204,4.0,6.0,59,0.00,,,0.00,415,weatherlink.com 1.10,2015-08-31 21:44:00,
2015-08-31 17:59:00,86.2,70.0,29.90,SW,232,0.0,5.0,59,0.00,,,0.00,360,weatherlink.com 1.10,2015-08-31 21:59:00,
2015-08-31 18:14:00,87.1,71.0,29.90,WNW,294,0.0,4.0,60,0.00,,,0.00,311,weatherlink.com 1.10,2015-08-31 22:14:00,
2015-08-31 18:29:00,86.1,71.0,29.91,SW,235,0.0,6.0,61,0.00,,,0.00,264,weatherlink.com 1.10,2015-08-31 22:29:00,
2015-08-31 18:44:00,86.4,71.0,29.91,WSW,240,1.0,5.0,60,0.00,,,0.00,218,weatherlink.com 1.10,2015-08-31 22:44:00,
2015-08-31 18:59:00,85.7,71.0,29.91,WSW,240,2.0,4.0,62,0.00,,,0.00,178,weatherlink.com 1.10,2015-08-31 22:59:00,
2015-08-31 19:14:00,85.3,71.0,29.91,WSW,240,0.0,3.0,63,0.00,,,0.00,128,weatherlink.com 1.10,2015-08-31 23:14:00,